Year,Month,Day,Hour,Minute,Value (Times are PST for temperature in C)
2012,09,04,00,00,15.80
2012,09,04,00,01,15.80
2012,09,04,00,02,15.80
2012,09,04,00,03,15.80
2012,09,04,00,04,15.80
2012,09,04,00,05,15.80
2012,09,04,00,06,15.80
2012,09,04,00,07,15.80
2012,09,04,00,08,15.80
2012,09,04,00,09,15.80
2012,09,04,00,10,15.80
2012,09,04,00,11,15.80
2012,09,04,00,12,15.80
2012,09,04,00,13,15.70
2012,09,04,00,14,15.70
2012,09,04,00,15,15.70
2012,09,04,00,16,15.70
2012,09,04,00,17,15.70
2012,09,04,00,18,15.70
2012,09,04,00,19,15.70
2012,09,04,00,20,15.70
2012,09,04,00,21,15.70
2012,09,04,00,22,15.70
2012,09,04,00,23,15.70
2012,09,04,00,24,15.70
2012,09,04,00,25,15.70
2012,09,04,00,26,15.70
2012,09,04,00,27,15.70
2012,09,04,00,28,15.70
2012,09,04,00,29,15.70
2012,09,04,00,30,15.70
2012,09,04,00,31,15.70
2012,09,04,00,32,15.70
2012,09,04,00,33,15.70
2012,09,04,00,34,15.70
2012,09,04,00,35,15.70
2012,09,04,00,36,15.70
2012,09,04,00,37,15.70
2012,09,04,00,38,15.60
2012,09,04,00,39,15.60
2012,09,04,00,40,15.60
2012,09,04,00,41,15.60
2012,09,04,00,42,15.60
2012,09,04,00,43,15.50
2012,09,04,00,44,15.50
2012,09,04,00,45,15.50
2012,09,04,00,46,15.40
2012,09,04,00,47,15.40
2012,09,04,00,48,15.40
2012,09,04,00,49,15.40
2012,09,04,00,50,15.40
2012,09,04,00,51,15.40
2012,09,04,00,52,15.40
2012,09,04,00,53,15.40
2012,09,04,00,54,15.40
2012,09,04,00,55,15.40
2012,09,04,00,56,15.40
2012,09,04,00,57,15.40
2012,09,04,00,58,15.40
2012,09,04,00,59,15.40
2012,09,04,01,00,15.40
2012,09,04,01,01,15.30
2012,09,04,01,02,15.30
2012,09,04,01,03,15.30
2012,09,04,01,04,15.30
2012,09,04,01,05,15.30
2012,09,04,01,06,15.30
2012,09,04,01,07,15.20
2012,09,04,01,08,15.20
2012,09,04,01,09,15.20
2012,09,04,01,10,15.20
2012,09,04,01,11,15.20
2012,09,04,01,12,15.20
2012,09,04,01,13,15.10
2012,09,04,01,14,15.10
2012,09,04,01,15,15.00
2012,09,04,01,16,15.00
2012,09,04,01,17,14.90
2012,09,04,01,18,14.90
2012,09,04,01,19,14.90
2012,09,04,01,20,14.80
2012,09,04,01,21,14.80
2012,09,04,01,22,14.80
2012,09,04,01,23,14.70
2012,09,04,01,24,14.70
2012,09,04,01,25,14.70
2012,09,04,01,26,14.70
2012,09,04,01,27,14.70
2012,09,04,01,28,14.60
2012,09,04,01,29,14.60
2012,09,04,01,30,14.60
2012,09,04,01,31,14.50
2012,09,04,01,32,14.50
2012,09,04,01,33,14.40
2012,09,04,01,34,14.40
2012,09,04,01,35,14.40
2012,09,04,01,36,14.40
2012,09,04,01,37,14.30
2012,09,04,01,38,14.30
2012,09,04,01,39,14.30
2012,09,04,01,40,14.40
2012,09,04,01,41,14.40
2012,09,04,01,42,14.40
2012,09,04,01,43,14.40
2012,09,04,01,44,14.40
2012,09,04,01,45,14.40
2012,09,04,01,46,14.40
2012,09,04,01,47,14.40
2012,09,04,01,48,14.40
2012,09,04,01,49,14.30
2012,09,04,01,50,14.30
2012,09,04,01,51,14.30
2012,09,04,01,52,14.40
2012,09,04,01,53,14.40
2012,09,04,01,54,14.40
2012,09,04,01,55,14.40
2012,09,04,01,56,14.40
2012,09,04,01,57,14.40
2012,09,04,01,58,14.40
2012,09,04,01,59,14.40
2012,09,04,02,00,14.40
2012,09,04,02,01,14.40
2012,09,04,02,02,14.40
2012,09,04,02,03,14.40
2012,09,04,02,04,14.40
2012,09,04,02,05,14.40
2012,09,04,02,06,14.40
2012,09,04,02,07,14.40
2012,09,04,02,08,14.40
2012,09,04,02,09,14.40
2012,09,04,02,10,14.40
2012,09,04,02,11,14.30
2012,09,04,02,12,14.30
2012,09,04,02,13,14.20
2012,09,04,02,14,14.10
2012,09,04,02,15,14.10
2012,09,04,02,16,14.10
2012,09,04,02,17,14.00
2012,09,04,02,18,14.00
2012,09,04,02,19,14.00
2012,09,04,02,20,13.90
2012,09,04,02,21,13.90
2012,09,04,02,22,13.90
2012,09,04,02,23,13.90
2012,09,04,02,24,13.90
2012,09,04,02,25,13.90
2012,09,04,02,26,13.80
2012,09,04,02,27,13.80
2012,09,04,02,28,13.80
2012,09,04,02,29,13.80
2012,09,04,02,30,13.80
2012,09,04,02,31,13.80
2012,09,04,02,32,13.80
2012,09,04,02,33,13.80
2012,09,04,02,34,13.80
2012,09,04,02,35,13.80
2012,09,04,02,36,13.70
2012,09,04,02,37,13.60
2012,09,04,02,38,13.60
2012,09,04,02,39,13.50
2012,09,04,02,40,13.40
2012,09,04,02,41,13.40
2012,09,04,02,42,13.30
2012,09,04,02,43,13.30
2012,09,04,02,44,13.30
2012,09,04,02,45,13.20
2012,09,04,02,46,13.20
2012,09,04,02,47,13.20
2012,09,04,02,48,13.10
2012,09,04,02,49,13.10
2012,09,04,02,50,13.00
2012,09,04,02,51,13.00
2012,09,04,02,52,12.90
2012,09,04,02,53,12.90
2012,09,04,02,54,12.90
2012,09,04,02,55,12.80
2012,09,04,02,56,12.80
2012,09,04,02,57,12.80
2012,09,04,02,58,12.70
2012,09,04,02,59,12.70
2012,09,04,03,00,12.70
2012,09,04,03,01,12.70
2012,09,04,03,02,12.60
2012,09,04,03,03,12.60
2012,09,04,03,04,12.60
2012,09,04,03,05,12.60
2012,09,04,03,06,12.60
2012,09,04,03,07,12.60
2012,09,04,03,08,12.60
2012,09,04,03,09,12.70
2012,09,04,03,10,12.70
2012,09,04,03,11,12.70
2012,09,04,03,12,12.70
2012,09,04,03,13,12.70
2012,09,04,03,14,12.70
2012,09,04,03,15,12.60
2012,09,04,03,16,12.60
2012,09,04,03,17,12.50
2012,09,04,03,18,12.40
2012,09,04,03,19,12.40
2012,09,04,03,20,12.40
2012,09,04,03,21,12.40
2012,09,04,03,22,12.40
2012,09,04,03,23,12.30
2012,09,04,03,24,12.30
2012,09,04,03,25,12.30
2012,09,04,03,26,12.30
2012,09,04,03,27,12.30
2012,09,04,03,28,12.30
2012,09,04,03,29,12.20
2012,09,04,03,30,12.20
2012,09,04,03,31,12.20
2012,09,04,03,32,12.20
2012,09,04,03,33,12.10
2012,09,04,03,34,12.10
2012,09,04,03,35,12.10
2012,09,04,03,36,12.00
2012,09,04,03,37,12.00
2012,09,04,03,38,12.00
2012,09,04,03,39,11.90
2012,09,04,03,40,11.90
2012,09,04,03,41,11.90
2012,09,04,03,42,11.90
2012,09,04,03,43,11.80
2012,09,04,03,44,11.80
2012,09,04,03,45,11.80
2012,09,04,03,46,11.80
2012,09,04,03,47,11.80
2012,09,04,03,48,11.70
2012,09,04,03,49,11.70
2012,09,04,03,50,11.70
2012,09,04,03,51,11.70
2012,09,04,03,52,11.60
2012,09,04,03,53,11.60
2012,09,04,03,54,11.60
2012,09,04,03,55,11.60
2012,09,04,03,56,11.60
2012,09,04,03,57,11.60
2012,09,04,03,58,11.60
2012,09,04,03,59,11.60
2012,09,04,04,00,11.60
2012,09,04,04,01,11.60
2012,09,04,04,02,11.50
2012,09,04,04,03,11.50
2012,09,04,04,04,11.50
2012,09,04,04,05,11.50
2012,09,04,04,06,11.50
2012,09,04,04,07,11.50
2012,09,04,04,08,11.50
2012,09,04,04,09,11.40
2012,09,04,04,10,11.40
2012,09,04,04,11,11.40
2012,09,04,04,12,11.40
2012,09,04,04,13,11.40
2012,09,04,04,14,11.40
2012,09,04,04,15,11.40
2012,09,04,04,16,11.40
2012,09,04,04,17,11.30
2012,09,04,04,18,11.30
2012,09,04,04,19,11.30
2012,09,04,04,20,11.30
2012,09,04,04,21,11.30
2012,09,04,04,22,11.20
2012,09,04,04,23,11.20
2012,09,04,04,24,11.20
2012,09,04,04,25,11.10
2012,09,04,04,26,11.10
2012,09,04,04,27,11.10
2012,09,04,04,28,11.10
2012,09,04,04,29,11.10
2012,09,04,04,30,11.10
2012,09,04,04,31,11.10
2012,09,04,04,32,11.00
2012,09,04,04,33,11.00
2012,09,04,04,34,11.00
2012,09,04,04,35,11.00
2012,09,04,04,36,11.00
2012,09,04,04,37,11.00
2012,09,04,04,38,10.90
2012,09,04,04,39,10.90
2012,09,04,04,40,10.90
2012,09,04,04,41,10.90
2012,09,04,04,42,10.90
2012,09,04,04,43,10.90
2012,09,04,04,44,10.90
2012,09,04,04,45,10.90
2012,09,04,04,46,10.90
2012,09,04,04,47,10.80
2012,09,04,04,48,10.80
2012,09,04,04,49,10.80
2012,09,04,04,50,10.80
2012,09,04,04,51,10.80
2012,09,04,04,52,10.80
2012,09,04,04,53,10.80
2012,09,04,04,54,10.80
2012,09,04,04,55,10.80
2012,09,04,04,56,10.70
2012,09,04,04,57,10.70
2012,09,04,04,58,10.70
2012,09,04,04,59,10.70
2012,09,04,05,00,10.70
2012,09,04,05,01,10.70
2012,09,04,05,02,10.70
2012,09,04,05,03,10.70
2012,09,04,05,04,10.70
2012,09,04,05,05,10.60
2012,09,04,05,06,10.60
2012,09,04,05,07,10.60
2012,09,04,05,08,10.60
2012,09,04,05,09,10.60
2012,09,04,05,10,10.50
2012,09,04,05,11,10.50
2012,09,04,05,12,10.50
2012,09,04,05,13,10.50
2012,09,04,05,14,10.40
2012,09,04,05,15,10.40
2012,09,04,05,16,10.40
2012,09,04,05,17,10.40
2012,09,04,05,18,10.40
2012,09,04,05,19,10.30
2012,09,04,05,20,10.30
2012,09,04,05,21,10.30
2012,09,04,05,22,10.30
2012,09,04,05,23,10.30
2012,09,04,05,24,10.30
2012,09,04,05,25,10.20
2012,09,04,05,26,10.20
2012,09,04,05,27,10.20
2012,09,04,05,28,10.20
2012,09,04,05,29,10.20
2012,09,04,05,30,10.10
2012,09,04,05,31,10.10
2012,09,04,05,32,10.10
2012,09,04,05,33,10.10
2012,09,04,05,34,10.10
2012,09,04,05,35,10.10
2012,09,04,05,36,10.10
2012,09,04,05,37,10.00
2012,09,04,05,38,10.00
2012,09,04,05,39,9.90
2012,09,04,05,40,9.90
2012,09,04,05,41,9.90
2012,09,04,05,42,9.90
2012,09,04,05,43,9.90
2012,09,04,05,44,9.90
2012,09,04,05,45,9.90
2012,09,04,05,46,9.80
2012,09,04,05,47,9.80
2012,09,04,05,48,9.80
2012,09,04,05,49,9.80
2012,09,04,05,50,9.80
2012,09,04,05,51,9.80
2012,09,04,05,52,9.80
2012,09,04,05,53,9.70
2012,09,04,05,54,9.70
2012,09,04,05,55,9.70
2012,09,04,05,56,9.70
2012,09,04,05,57,9.70
2012,09,04,05,58,9.70
2012,09,04,05,59,9.70
2012,09,04,06,00,9.70
2012,09,04,06,01,9.70
2012,09,04,06,02,9.60
2012,09,04,06,03,9.60
2012,09,04,06,04,9.60
2012,09,04,06,05,9.60
2012,09,04,06,06,9.60
2012,09,04,06,07,9.60
2012,09,04,06,08,9.60
2012,09,04,06,09,9.60
2012,09,04,06,10,9.60
2012,09,04,06,11,9.60
2012,09,04,06,12,9.60
2012,09,04,06,13,9.60
2012,09,04,06,14,9.60
2012,09,04,06,15,9.60
2012,09,04,06,16,9.60
2012,09,04,06,17,9.60
2012,09,04,06,18,9.50
2012,09,04,06,19,9.50
2012,09,04,06,20,9.50
2012,09,04,06,21,9.50
2012,09,04,06,22,9.50
2012,09,04,06,23,9.50
2012,09,04,06,24,9.50
2012,09,04,06,25,9.50
2012,09,04,06,26,9.50
2012,09,04,06,27,9.40
2012,09,04,06,28,9.40
2012,09,04,06,29,9.40
2012,09,04,06,30,9.40
2012,09,04,06,31,9.40
2012,09,04,06,32,9.40
2012,09,04,06,33,9.40
2012,09,04,06,34,9.40
2012,09,04,06,35,9.40
2012,09,04,06,36,9.40
2012,09,04,06,37,9.40
2012,09,04,06,38,9.40
2012,09,04,06,39,9.40
2012,09,04,06,40,9.40
2012,09,04,06,41,9.30
2012,09,04,06,42,9.30
2012,09,04,06,43,9.30
2012,09,04,06,44,9.30
2012,09,04,06,45,9.30
2012,09,04,06,46,9.30
2012,09,04,06,47,9.30
2012,09,04,06,48,9.30
2012,09,04,06,49,9.30
2012,09,04,06,50,9.30
2012,09,04,06,51,9.30
2012,09,04,06,52,9.30
2012,09,04,06,53,9.30
2012,09,04,06,54,9.30
2012,09,04,06,55,9.20
2012,09,04,06,56,9.20
2012,09,04,06,57,9.20
2012,09,04,06,58,9.20
2012,09,04,06,59,9.20
2012,09,04,07,00,9.20
2012,09,04,07,01,9.20
2012,09,04,07,02,9.20
2012,09,04,07,03,9.20
2012,09,04,07,04,9.20
2012,09,04,07,05,9.20
2012,09,04,07,06,9.20
2012,09,04,07,07,9.20
2012,09,04,07,08,9.20
2012,09,04,07,09,9.20
2012,09,04,07,10,9.20
2012,09,04,07,11,9.20
2012,09,04,07,12,9.20
2012,09,04,07,13,9.20
2012,09,04,07,14,9.20
2012,09,04,07,15,9.20
2012,09,04,07,16,9.20
2012,09,04,07,17,9.20
2012,09,04,07,18,9.20
2012,09,04,07,19,9.20
2012,09,04,07,20,9.20
2012,09,04,07,21,9.20
2012,09,04,07,22,9.20
2012,09,04,07,23,9.20
2012,09,04,07,24,9.20
2012,09,04,07,25,9.20
2012,09,04,07,26,9.20
2012,09,04,07,27,9.20
2012,09,04,07,28,9.20
2012,09,04,07,29,9.20
2012,09,04,07,30,9.20
2012,09,04,07,31,9.20
2012,09,04,07,32,9.20
2012,09,04,07,33,9.10
2012,09,04,07,34,9.10
2012,09,04,07,35,9.10
2012,09,04,07,36,9.10
2012,09,04,07,37,9.10
2012,09,04,07,38,9.10
2012,09,04,07,39,9.10
2012,09,04,07,40,9.10
2012,09,04,07,41,9.10
2012,09,04,07,42,9.10
2012,09,04,07,43,9.10
2012,09,04,07,44,9.10
2012,09,04,07,45,9.10
2012,09,04,07,46,9.10
2012,09,04,07,47,9.10
2012,09,04,07,48,9.10
2012,09,04,07,49,9.10
2012,09,04,07,50,9.10
2012,09,04,07,51,9.10
2012,09,04,07,52,9.10
2012,09,04,07,53,9.10
2012,09,04,07,54,9.10
2012,09,04,07,55,9.10
2012,09,04,07,56,9.10
2012,09,04,07,57,9.10
2012,09,04,07,58,9.10
2012,09,04,07,59,9.10
2012,09,04,08,00,9.10
2012,09,04,08,01,9.10
2012,09,04,08,02,9.10
2012,09,04,08,03,9.10
2012,09,04,08,04,9.10
2012,09,04,08,05,9.10
2012,09,04,08,06,9.20
2012,09,04,08,07,9.20
2012,09,04,08,08,9.20
2012,09,04,08,09,9.20
2012,09,04,08,10,9.30
2012,09,04,08,11,9.30
2012,09,04,08,12,9.40
2012,09,04,08,13,9.50
2012,09,04,08,14,9.60
2012,09,04,08,15,9.70
2012,09,04,08,16,9.70
2012,09,04,08,17,9.80
2012,09,04,08,18,9.90
2012,09,04,08,19,10.00
2012,09,04,08,20,10.10
2012,09,04,08,21,10.20
2012,09,04,08,22,10.30
2012,09,04,08,23,10.30
2012,09,04,08,24,10.40
2012,09,04,08,25,10.50
2012,09,04,08,26,10.60
2012,09,04,08,27,10.70
2012,09,04,08,28,10.80
2012,09,04,08,29,10.90
2012,09,04,08,30,11.00
2012,09,04,08,31,11.10
2012,09,04,08,32,11.20
2012,09,04,08,33,11.30
2012,09,04,08,34,11.40
2012,09,04,08,35,11.50
2012,09,04,08,36,11.60
2012,09,04,08,37,11.70
2012,09,04,08,38,11.70
2012,09,04,08,39,11.80
2012,09,04,08,40,11.90
2012,09,04,08,41,12.00
2012,09,04,08,42,12.00
2012,09,04,08,43,12.10
2012,09,04,08,44,12.20
2012,09,04,08,45,12.20
2012,09,04,08,46,12.30
2012,09,04,08,47,12.40
2012,09,04,08,48,12.50
2012,09,04,08,49,12.60
2012,09,04,08,50,12.70
2012,09,04,08,51,12.70
2012,09,04,08,52,12.80
2012,09,04,08,53,12.80
2012,09,04,08,54,12.90
2012,09,04,08,55,12.90
2012,09,04,08,56,13.00
2012,09,04,08,57,13.00
2012,09,04,08,58,13.10
2012,09,04,08,59,13.10
2012,09,04,09,00,13.20
2012,09,04,09,01,13.20
2012,09,04,09,02,13.30
2012,09,04,09,03,13.30
2012,09,04,09,04,13.40
2012,09,04,09,05,13.40
2012,09,04,09,06,13.50
2012,09,04,09,07,13.60
2012,09,04,09,08,13.70
2012,09,04,09,09,13.80
2012,09,04,09,10,13.80
2012,09,04,09,11,13.90
2012,09,04,09,12,14.00
2012,09,04,09,13,14.00
2012,09,04,09,14,14.10
2012,09,04,09,15,14.10
2012,09,04,09,16,14.10
2012,09,04,09,17,14.20
2012,09,04,09,18,14.30
2012,09,04,09,19,14.30
2012,09,04,09,20,14.40
2012,09,04,09,21,14.50
2012,09,04,09,22,14.60
2012,09,04,09,23,14.70
2012,09,04,09,24,14.70
2012,09,04,09,25,14.80
2012,09,04,09,26,14.80
2012,09,04,09,27,14.90
2012,09,04,09,28,14.90
2012,09,04,09,29,15.00
2012,09,04,09,30,15.10
2012,09,04,09,31,15.20
2012,09,04,09,32,15.30
2012,09,04,09,33,15.40
2012,09,04,09,34,15.50
2012,09,04,09,35,15.60
2012,09,04,09,36,15.70
2012,09,04,09,37,15.80
2012,09,04,09,38,15.80
2012,09,04,09,39,15.90
2012,09,04,09,40,15.90
2012,09,04,09,41,16.00
2012,09,04,09,42,16.10
2012,09,04,09,43,16.10
2012,09,04,09,44,16.20
2012,09,04,09,45,16.20
2012,09,04,09,46,16.30
2012,09,04,09,47,16.40
2012,09,04,09,48,16.40
2012,09,04,09,49,16.40
2012,09,04,09,50,16.40
2012,09,04,09,51,16.50
2012,09,04,09,52,16.50
2012,09,04,09,53,16.40
2012,09,04,09,54,16.30
2012,09,04,09,55,16.30
2012,09,04,09,56,16.30
2012,09,04,09,57,16.30
2012,09,04,09,58,16.30
2012,09,04,09,59,16.30
2012,09,04,10,00,16.40
2012,09,04,10,01,16.30
2012,09,04,10,02,16.30
2012,09,04,10,03,16.30
2012,09,04,10,04,16.30
2012,09,04,10,05,16.30
2012,09,04,10,06,16.30
2012,09,04,10,07,16.30
2012,09,04,10,08,16.30
2012,09,04,10,09,16.30
2012,09,04,10,10,16.30
2012,09,04,10,11,16.30
2012,09,04,10,12,16.30
2012,09,04,10,13,16.40
2012,09,04,10,14,16.40
2012,09,04,10,15,16.50
2012,09,04,10,16,16.60
2012,09,04,10,17,16.70
2012,09,04,10,18,16.80
2012,09,04,10,19,16.80
2012,09,04,10,20,16.90
2012,09,04,10,21,16.90
2012,09,04,10,22,17.00
2012,09,04,10,23,17.00
2012,09,04,10,24,17.00
2012,09,04,10,25,17.10
2012,09,04,10,26,17.10
2012,09,04,10,27,17.10
2012,09,04,10,28,17.10
2012,09,04,10,29,17.10
2012,09,04,10,30,17.10
2012,09,04,10,31,17.10
2012,09,04,10,32,17.00
2012,09,04,10,33,17.00
2012,09,04,10,34,17.00
2012,09,04,10,35,17.10
2012,09,04,10,36,17.10
2012,09,04,10,37,17.20
2012,09,04,10,38,17.20
2012,09,04,10,39,17.20
2012,09,04,10,40,17.30
2012,09,04,10,41,17.40
2012,09,04,10,42,17.50
2012,09,04,10,43,17.60
2012,09,04,10,44,17.70
2012,09,04,10,45,17.80
2012,09,04,10,46,17.80
2012,09,04,10,47,17.80
2012,09,04,10,48,17.80
2012,09,04,10,49,17.80
2012,09,04,10,50,17.80
2012,09,04,10,51,17.90
2012,09,04,10,52,18.00
2012,09,04,10,53,18.00
2012,09,04,10,54,18.10
2012,09,04,10,55,18.10
2012,09,04,10,56,18.20
2012,09,04,10,57,18.20
2012,09,04,10,58,18.20
2012,09,04,10,59,18.30
2012,09,04,11,00,18.40
2012,09,04,11,01,18.40
2012,09,04,11,02,18.50
2012,09,04,11,03,18.50
2012,09,04,11,04,18.60
2012,09,04,11,05,18.60
2012,09,04,11,06,18.60
2012,09,04,11,07,18.60
2012,09,04,11,08,18.70
2012,09,04,11,09,18.70
2012,09,04,11,10,18.80
2012,09,04,11,11,18.80
2012,09,04,11,12,18.80
2012,09,04,11,13,18.90
2012,09,04,11,14,19.00
2012,09,04,11,15,19.00
2012,09,04,11,16,19.10
2012,09,04,11,17,19.20
2012,09,04,11,18,19.30
2012,09,04,11,19,19.40
2012,09,04,11,20,19.40
2012,09,04,11,21,19.40
2012,09,04,11,22,19.50
2012,09,04,11,23,19.50
2012,09,04,11,24,19.50
2012,09,04,11,25,19.40
2012,09,04,11,26,19.30
2012,09,04,11,27,19.30
2012,09,04,11,28,19.30
2012,09,04,11,29,19.30
2012,09,04,11,30,19.30
2012,09,04,11,31,19.30
2012,09,04,11,32,19.30
2012,09,04,11,33,19.30
2012,09,04,11,34,19.30
2012,09,04,11,35,19.30
2012,09,04,11,36,19.30
2012,09,04,11,37,19.40
2012,09,04,11,38,19.40
2012,09,04,11,39,19.50
2012,09,04,11,40,19.50
2012,09,04,11,41,19.60
2012,09,04,11,42,19.60
2012,09,04,11,43,19.70
2012,09,04,11,44,19.70
2012,09,04,11,45,19.80
2012,09,04,11,46,19.80
2012,09,04,11,47,19.90
2012,09,04,11,48,19.90
2012,09,04,11,49,20.00
2012,09,04,11,50,20.00
2012,09,04,11,51,20.10
2012,09,04,11,52,20.20
2012,09,04,11,53,20.30
2012,09,04,11,54,20.40
2012,09,04,11,55,20.50
2012,09,04,11,56,20.50
2012,09,04,11,57,20.50
2012,09,04,11,58,20.60
2012,09,04,11,59,20.60
2012,09,04,12,00,20.60
2012,09,04,12,01,20.60
2012,09,04,12,02,20.60
2012,09,04,12,03,20.60
2012,09,04,12,04,20.60
2012,09,04,12,05,20.60
2012,09,04,12,06,20.70
2012,09,04,12,07,20.70
2012,09,04,12,08,20.70
2012,09,04,12,09,20.70
2012,09,04,12,10,20.80
2012,09,04,12,11,20.80
2012,09,04,12,12,20.70
2012,09,04,12,13,20.70
2012,09,04,12,14,20.70
2012,09,04,12,15,20.70
2012,09,04,12,16,20.80
2012,09,04,12,17,20.80
2012,09,04,12,18,20.80
2012,09,04,12,19,20.90
2012,09,04,12,20,20.90
2012,09,04,12,21,21.00
2012,09,04,12,22,21.00
2012,09,04,12,23,21.10
2012,09,04,12,24,21.10
2012,09,04,12,25,21.20
2012,09,04,12,26,21.30
2012,09,04,12,27,21.30
2012,09,04,12,28,21.30
2012,09,04,12,29,21.30
2012,09,04,12,30,21.40
2012,09,04,12,31,21.40
2012,09,04,12,32,21.50
2012,09,04,12,33,21.50
2012,09,04,12,34,21.60
2012,09,04,12,35,21.70
2012,09,04,12,36,21.80
2012,09,04,12,37,21.90
2012,09,04,12,38,21.90
2012,09,04,12,39,21.90
2012,09,04,12,40,22.00
2012,09,04,12,41,22.00
2012,09,04,12,42,22.10
2012,09,04,12,43,22.10
2012,09,04,12,44,22.10
2012,09,04,12,45,22.10
2012,09,04,12,46,22.20
2012,09,04,12,47,22.20
2012,09,04,12,48,22.20
2012,09,04,12,49,22.30
2012,09,04,12,50,22.30
2012,09,04,12,51,22.40
2012,09,04,12,52,22.40
2012,09,04,12,53,22.50
2012,09,04,12,54,22.50
2012,09,04,12,55,22.60
2012,09,04,12,56,22.70
2012,09,04,12,57,22.70
2012,09,04,12,58,22.70
2012,09,04,12,59,22.80
2012,09,04,13,00,22.80
2012,09,04,13,01,22.90
2012,09,04,13,02,23.00
2012,09,04,13,03,23.10
2012,09,04,13,04,23.20
2012,09,04,13,05,23.30
2012,09,04,13,06,23.30
2012,09,04,13,07,23.40
2012,09,04,13,08,23.50
2012,09,04,13,09,23.50
2012,09,04,13,10,23.60
2012,09,04,13,11,23.60
2012,09,04,13,12,23.70
2012,09,04,13,13,23.80
2012,09,04,13,14,23.80
2012,09,04,13,15,23.80
2012,09,04,13,16,23.80
2012,09,04,13,17,23.80
2012,09,04,13,18,23.80
2012,09,04,13,19,23.70
2012,09,04,13,20,23.70
2012,09,04,13,21,23.80
2012,09,04,13,22,23.80
2012,09,04,13,23,23.80
2012,09,04,13,24,23.80
2012,09,04,13,25,23.80
2012,09,04,13,26,23.90
2012,09,04,13,27,24.10
2012,09,04,13,28,24.20
2012,09,04,13,29,24.30
2012,09,04,13,30,24.30
2012,09,04,13,31,24.40
2012,09,04,13,32,24.50
2012,09,04,13,33,24.70
2012,09,04,13,34,24.70
2012,09,04,13,35,24.70
2012,09,04,13,36,24.70
2012,09,04,13,37,24.70
2012,09,04,13,38,24.70
2012,09,04,13,39,24.80
2012,09,04,13,40,24.90
2012,09,04,13,41,25.00
2012,09,04,13,42,25.10
2012,09,04,13,43,25.20
2012,09,04,13,44,25.30
2012,09,04,13,45,25.40
2012,09,04,13,46,25.40
2012,09,04,13,47,25.40
2012,09,04,13,48,25.40
2012,09,04,13,49,25.30
2012,09,04,13,50,25.30
2012,09,04,13,51,25.20
2012,09,04,13,52,25.20
2012,09,04,13,53,25.20
2012,09,04,13,54,25.30
2012,09,04,13,55,25.40
2012,09,04,13,56,25.50
2012,09,04,13,57,25.60
2012,09,04,13,58,25.70
2012,09,04,13,59,25.70
2012,09,04,14,00,25.70
2012,09,04,14,01,25.70
2012,09,04,14,02,25.70
2012,09,04,14,03,25.70
2012,09,04,14,04,25.70
2012,09,04,14,05,25.70
2012,09,04,14,06,25.70
2012,09,04,14,07,25.80
2012,09,04,14,08,25.90
2012,09,04,14,09,26.00
2012,09,04,14,10,26.10
2012,09,04,14,11,26.20
2012,09,04,14,12,26.30
2012,09,04,14,13,26.30
2012,09,04,14,14,26.30
2012,09,04,14,15,26.20
2012,09,04,14,16,26.20
2012,09,04,14,17,26.20
2012,09,04,14,18,26.20
2012,09,04,14,19,26.20
2012,09,04,14,20,26.20
2012,09,04,14,21,26.20
2012,09,04,14,22,26.20
2012,09,04,14,23,26.20
2012,09,04,14,24,26.30
2012,09,04,14,25,26.30
2012,09,04,14,26,26.30
2012,09,04,14,27,26.40
2012,09,04,14,28,26.50
2012,09,04,14,29,26.60
2012,09,04,14,30,26.60
2012,09,04,14,31,26.60
2012,09,04,14,32,26.60
2012,09,04,14,33,26.50
2012,09,04,14,34,26.50
2012,09,04,14,35,26.50
2012,09,04,14,36,26.40
2012,09,04,14,37,26.40
2012,09,04,14,38,26.40
2012,09,04,14,39,26.40
2012,09,04,14,40,26.50
2012,09,04,14,41,26.50
2012,09,04,14,42,26.60
2012,09,04,14,43,26.60
2012,09,04,14,44,26.60
2012,09,04,14,45,26.70
2012,09,04,14,46,26.80
2012,09,04,14,47,26.90
2012,09,04,14,48,26.90
2012,09,04,14,49,26.80
2012,09,04,14,50,26.80
2012,09,04,14,51,26.80
2012,09,04,14,52,26.90
2012,09,04,14,53,26.90
2012,09,04,14,54,27.00
2012,09,04,14,55,27.00
2012,09,04,14,56,27.00
2012,09,04,14,57,26.90
2012,09,04,14,58,27.00
2012,09,04,14,59,27.00
2012,09,04,15,00,27.00
2012,09,04,15,01,27.00
2012,09,04,15,02,26.90
2012,09,04,15,03,26.90
2012,09,04,15,04,27.00
2012,09,04,15,05,27.00
2012,09,04,15,06,27.10
2012,09,04,15,07,27.10
2012,09,04,15,08,27.10
2012,09,04,15,09,27.10
2012,09,04,15,10,27.10
2012,09,04,15,11,27.10
2012,09,04,15,12,27.20
2012,09,04,15,13,27.20
2012,09,04,15,14,27.20
2012,09,04,15,15,27.30
2012,09,04,15,16,27.30
2012,09,04,15,17,27.30
2012,09,04,15,18,27.20
2012,09,04,15,19,27.20
2012,09,04,15,20,27.10
2012,09,04,15,21,27.10
2012,09,04,15,22,27.20
2012,09,04,15,23,27.20
2012,09,04,15,24,27.20
2012,09,04,15,25,27.30
2012,09,04,15,26,27.40
2012,09,04,15,27,27.40
2012,09,04,15,28,27.50
2012,09,04,15,29,27.60
2012,09,04,15,30,27.50
2012,09,04,15,31,27.50
2012,09,04,15,32,27.50
2012,09,04,15,33,27.50
2012,09,04,15,34,27.40
2012,09,04,15,35,27.50
2012,09,04,15,36,27.50
2012,09,04,15,37,27.60
2012,09,04,15,38,27.70
2012,09,04,15,39,27.70
2012,09,04,15,40,27.70
2012,09,04,15,41,27.70
2012,09,04,15,42,27.80
2012,09,04,15,43,27.80
2012,09,04,15,44,27.80
2012,09,04,15,45,27.70
2012,09,04,15,46,27.60
2012,09,04,15,47,27.60
2012,09,04,15,48,27.60
2012,09,04,15,49,27.60
2012,09,04,15,50,27.60
2012,09,04,15,51,27.60
2012,09,04,15,52,27.50
2012,09,04,15,53,27.50
2012,09,04,15,54,27.40
2012,09,04,15,55,27.40
2012,09,04,15,56,27.50
2012,09,04,15,57,27.50
2012,09,04,15,58,27.50
2012,09,04,15,59,27.60
2012,09,04,16,00,27.70
2012,09,04,16,01,27.70
2012,09,04,16,02,27.80
2012,09,04,16,03,27.80
2012,09,04,16,04,27.80
2012,09,04,16,05,27.80
2012,09,04,16,06,27.80
2012,09,04,16,07,27.80
2012,09,04,16,08,27.80
2012,09,04,16,09,27.70
2012,09,04,16,10,27.70
2012,09,04,16,11,27.80
2012,09,04,16,12,27.80
2012,09,04,16,13,27.90
2012,09,04,16,14,28.00
2012,09,04,16,15,28.00
2012,09,04,16,16,28.10
2012,09,04,16,17,28.10
2012,09,04,16,18,28.20
2012,09,04,16,19,28.20
2012,09,04,16,20,28.30
2012,09,04,16,21,28.30
2012,09,04,16,22,28.20
2012,09,04,16,23,28.20
2012,09,04,16,24,28.20
2012,09,04,16,25,28.20
2012,09,04,16,26,28.20
2012,09,04,16,27,28.20
2012,09,04,16,28,28.30
2012,09,04,16,29,28.30
2012,09,04,16,30,28.20
2012,09,04,16,31,28.10
2012,09,04,16,32,28.00
2012,09,04,16,33,27.90
2012,09,04,16,34,27.90
2012,09,04,16,35,27.80
2012,09,04,16,36,27.70
2012,09,04,16,37,27.50
2012,09,04,16,38,27.30
2012,09,04,16,39,27.20
2012,09,04,16,40,27.10
2012,09,04,16,41,27.00
2012,09,04,16,42,26.90
2012,09,04,16,43,26.90
2012,09,04,16,44,26.90
2012,09,04,16,45,26.80
2012,09,04,16,46,26.80
2012,09,04,16,47,26.80
2012,09,04,16,48,26.80
2012,09,04,16,49,26.80
2012,09,04,16,50,26.70
2012,09,04,16,51,26.70
2012,09,04,16,52,26.70
2012,09,04,16,53,26.70
2012,09,04,16,54,26.70
2012,09,04,16,55,26.70
2012,09,04,16,56,26.70
2012,09,04,16,57,26.70
2012,09,04,16,58,26.60
2012,09,04,16,59,26.60
2012,09,04,17,00,26.60
2012,09,04,17,01,26.60
2012,09,04,17,02,26.50
2012,09,04,17,03,26.50
2012,09,04,17,04,26.40
2012,09,04,17,05,26.40
2012,09,04,17,06,26.50
2012,09,04,17,07,26.50
2012,09,04,17,08,26.50
2012,09,04,17,09,26.60
2012,09,04,17,10,26.60
2012,09,04,17,11,26.60
2012,09,04,17,12,26.60
2012,09,04,17,13,26.50
2012,09,04,17,14,26.50
2012,09,04,17,15,26.60
2012,09,04,17,16,26.60
2012,09,04,17,17,26.60
2012,09,04,17,18,26.60
2012,09,04,17,19,26.60
2012,09,04,17,20,26.60
2012,09,04,17,21,26.60
2012,09,04,17,22,26.60
2012,09,04,17,23,26.60
2012,09,04,17,24,26.50
2012,09,04,17,25,26.50
2012,09,04,17,26,26.40